TimeCST,TemperatureF,Dew PointF,Humidity,Sea Level PressureIn,VisibilityMPH,Wind Direction,Wind SpeedMPH,Gust SpeedMPH,PrecipitationIn,Events,Conditions,WindDirDegrees,DateUTC
12:13 AM,35.6,30.2,81,29.77,1.8,Calm,Calm,-,N/A,,Haze,0,2013-01-28 06:13:00
12:33 AM,35.6,30.2,81,29.76,1.8,Calm,Calm,-,N/A,,Haze,0,2013-01-28 06:33:00
12:53 AM,35.6,30.2,81,29.77,1.8,Calm,Calm,-,N/A,,Haze,0,2013-01-28 06:53:00
1:13 AM,35.6,30.2,81,29.77,2.5,Calm,Calm,-,N/A,,Haze,0,2013-01-28 07:13:00
1:53 AM,33.8,28.4,81,29.78,1.8,Calm,Calm,-,N/A,,Haze,0,2013-01-28 07:53:00
2:14 AM,33.8,30.2,87,29.79,1.0,Calm,Calm,-,N/A,,Overcast,0,2013-01-28 08:14:00
2:33 AM,33.8,30.2,87,29.80,0.2,Calm,Calm,-,N/A,Fog,Fog,0,2013-01-28 08:33:00
2:53 AM,33.8,30.2,87,29.80,0.8,Calm,Calm,-,N/A,,Overcast,0,2013-01-28 08:53:00
3:14 AM,33.8,30.2,87,29.81,2.5,Calm,Calm,-,N/A,,Overcast,0,2013-01-28 09:14:00
3:33 AM,33.8,30.2,87,29.80,5.0,Calm,Calm,-,N/A,,Overcast,0,2013-01-28 09:33:00
3:54 AM,33.8,30.2,87,29.81,5.0,Calm,Calm,-,N/A,,Overcast,0,2013-01-28 09:54:00
4:14 AM,33.8,28.4,81,29.82,4.0,Calm,Calm,-,N/A,,Haze,0,2013-01-28 10:14:00
4:34 AM,33.8,28.4,81,29.82,2.5,Calm,Calm,-,N/A,,Haze,0,2013-01-28 10:34:00
4:53 AM,33.8,28.4,81,29.82,1.8,Calm,Calm,-,N/A,,Haze,0,2013-01-28 10:53:00
5:14 AM,33.8,28.4,81,29.82,2.0,Calm,Calm,-,N/A,,Haze,0,2013-01-28 11:14:00
6:14 AM,33.8,28.4,81,29.82,1.5,Calm,Calm,-,N/A,,Overcast,0,2013-01-28 12:14:00
6:34 AM,33.8,28.4,81,29.83,1.8,Calm,Calm,-,N/A,,Overcast,0,2013-01-28 12:34:00
6:54 AM,33.8,28.4,81,29.85,1.2,Calm,Calm,-,N/A,,Overcast,0,2013-01-28 12:54:00
7:13 AM,33.8,28.4,81,29.84,0.5,Calm,Calm,-,N/A,Fog,Fog,0,2013-01-28 13:13:00
7:33 AM,33.8,28.4,81,29.85,0.8,Calm,Calm,-,N/A,,Overcast,0,2013-01-28 13:33:00
7:54 AM,33.8,28.4,81,29.85,0.5,Calm,Calm,-,N/A,Fog,Fog,0,2013-01-28 13:54:00
8:14 AM,33.8,28.4,81,29.86,1.5,Calm,Calm,-,N/A,,Haze,0,2013-01-28 14:14:00
8:33 AM,33.8,28.4,81,29.86,0.5,Calm,Calm,-,N/A,,Haze,0,2013-01-28 14:33:00
8:53 AM,33.8,28.4,81,29.87,0.5,Calm,Calm,-,N/A,Fog,Fog,0,2013-01-28 14:53:00
9:14 AM,33.8,28.4,81,29.87,4.0,Calm,Calm,-,N/A,,Overcast,0,2013-01-28 15:14:00
9:34 AM,33.8,28.4,81,29.87,4.0,Calm,Calm,-,N/A,,Haze,0,2013-01-28 15:34:00
9:54 AM,33.8,28.4,81,29.87,3.0,SSW,3.5,-,N/A,,Haze,200,2013-01-28 15:54:00
10:14 AM,33.8,30.2,87,29.88,3.0,Calm,Calm,-,N/A,,Overcast,0,2013-01-28 16:14:00
10:33 AM,33.8,30.2,87,29.89,4.0,Calm,Calm,-,N/A,,Overcast,0,2013-01-28 16:33:00
10:53 AM,33.8,28.4,81,29.88,3.0,Calm,Calm,-,N/A,,Haze,0,2013-01-28 16:53:00
11:14 AM,35.6,30.2,81,29.87,2.0,Calm,Calm,-,N/A,,Haze,0,2013-01-28 17:14:00
11:33 AM,35.6,30.2,81,29.86,3.0,SE,3.5,-,N/A,,Haze,130,2013-01-28 17:33:00
11:54 AM,35.6,30.2,81,29.84,2.5,ESE,4.6,-,N/A,,Haze,120,2013-01-28 17:54:00
12:14 PM,35.6,30.2,81,29.85,2.5,SE,4.6,-,N/A,,Haze,130,2013-01-28 18:14:00
12:33 PM,35.6,30.2,81,29.85,1.0,SSE,4.6,-,N/A,,Haze,150,2013-01-28 18:33:00
12:53 PM,35.6,30.2,81,29.84,0.5,SSE,4.6,-,N/A,,Haze,150,2013-01-28 18:53:00
1:13 PM,35.6,30.2,81,29.84,0.5,Calm,Calm,-,N/A,Fog,Fog,0,2013-01-28 19:13:00
1:33 PM,35.6,30.2,81,29.83,0.5,SE,3.5,-,N/A,Fog,Fog,140,2013-01-28 19:33:00
1:54 PM,35.6,30.2,81,29.82,0.5,ESE,3.5,-,N/A,Fog,Fog,120,2013-01-28 19:54:00
2:14 PM,35.6,30.2,81,29.81,0.5,SE,3.5,-,N/A,Fog,Fog,140,2013-01-28 20:14:00
2:33 PM,35.6,30.2,81,29.81,0.8,SE,4.6,-,N/A,,Haze,140,2013-01-28 20:33:00
2:53 PM,35.6,30.2,81,29.81,1.0,SSE,6.9,-,N/A,,Haze,150,2013-01-28 20:53:00
3:13 PM,35.6,30.2,81,29.80,1.5,ESE,4.6,-,N/A,,Haze,120,2013-01-28 21:13:00
3:34 PM,35.6,30.2,81,29.80,1.5,ESE,5.8,-,N/A,,Haze,120,2013-01-28 21:34:00
3:54 PM,35.6,30.2,81,29.80,1.0,SE,6.9,-,N/A,,Haze,130,2013-01-28 21:54:00
4:14 PM,35.6,30.2,81,29.80,1.5,SE,4.6,-,N/A,,Haze,130,2013-01-28 22:14:00
4:34 PM,35.6,30.2,81,29.79,2.0,ESE,5.8,-,N/A,,Haze,110,2013-01-28 22:34:00
4:53 PM,35.6,30.2,81,29.78,1.5,ESE,8.1,-,N/A,,Haze,120,2013-01-28 22:53:00
5:13 PM,35.6,30.2,81,29.78,3.0,East,4.6,-,N/A,,Haze,90,2013-01-28 23:13:00
5:33 PM,35.6,30.2,81,29.78,4.0,ESE,5.8,-,N/A,,Haze,120,2013-01-28 23:33:00
5:54 PM,35.6,30.2,81,29.78,5.0,SE,4.6,-,N/A,,Haze,130,2013-01-28 23:54:00
6:14 PM,35.6,30.2,81,29.77,2.5,East,5.8,-,N/A,,Haze,90,2013-01-29 00:14:00
6:34 PM,35.6,30.2,81,29.76,3.0,East,5.8,-,N/A,,Haze,100,2013-01-29 00:34:00
6:53 PM,35.6,30.2,81,29.74,3.0,East,5.8,-,N/A,,Haze,90,2013-01-29 00:53:00
7:14 PM,35.6,30.2,81,29.75,2.5,ESE,5.8,-,N/A,,Haze,120,2013-01-29 01:14:00
7:34 PM,35.6,30.2,81,29.75,3.0,ESE,6.9,-,N/A,,Haze,120,2013-01-29 01:34:00
7:54 PM,35.6,30.2,81,29.74,3.0,ESE,6.9,-,N/A,,Overcast,110,2013-01-29 01:54:00
8:14 PM,35.6,30.2,81,29.72,4.0,ESE,8.1,-,N/A,,Overcast,110,2013-01-29 02:14:00
8:34 PM,35.6,30.2,81,29.71,7.0,East,6.9,-,N/A,,Overcast,100,2013-01-29 02:34:00
8:55 PM,35.6,30.2,81,29.70,5.0,East,5.8,-,N/A,,Haze,100,2013-01-29 02:55:00
9:13 PM,35.6,30.2,81,29.68,2.5,East,5.8,-,N/A,,Haze,100,2013-01-29 03:13:00
9:33 PM,35.6,30.2,81,29.67,1.8,East,4.6,-,0.03,Rain,Rain,100,2013-01-29 03:33:00
9:54 PM,35.6,30.2,81,29.64,2.5,East,6.9,-,0.09,Rain-Thunderstorm,Rain,100,2013-01-29 03:54:00
10:14 PM,35.6,30.2,81,29.63,3.0,East,3.5,-,0.16,Snow,Light Snow,80,2013-01-29 04:14:00
10:34 PM,37.4,32.0,81,29.60,1.5,East,5.8,-,0.16,,Light Drizzle,90,2013-01-29 04:34:00
10:54 PM,37.4,32.0,81,29.62,1.5,Calm,Calm,-,0.16,Snow,Light Snow,0,2013-01-29 04:54:00
11:14 PM,37.4,32.0,81,29.62,1.2,Calm,Calm,-,N/A,Snow,Light Snow,0,2013-01-29 05:14:00
11:34 PM,35.6,30.2,81,29.61,1.0,Calm,Calm,-,N/A,,Light Drizzle,0,2013-01-29 05:34:00
11:54 PM,35.6,30.2,81,29.61,1.0,Calm,Calm,-,N/A,,Light Drizzle,0,2013-01-29 05:54:00